Tracking 32139 objects as of 15-Nov-2025
HD Live streaming from Space Station
objects crossing your sky now

STARLINK-34838

Track STARLINK-34838 now!
10-day predictions
STARLINK-34838 is classified as:


NORAD ID: 65343
Int'l Code: 2025-189W
Perigee: 481.3 km
Apogee: 483.1 km
Inclination: 53.2 °
Period: 94.1 minutes
Semi major axis: 6853 km
RCS: Unknown
Launch date: August 27, 2025
Source: United States (US)
Launch site: AIR FORCE EASTERN TEST RANGE (AFETR)
Your satellite tracking list
Your tracking list is empty




NASA's NSSDC Master Catalog

Two Line Element Set (TLE):
1 65343U 25189W   25318.22470646  .00041895  00000-0  14163-2 0  9990
2 65343  53.1592  23.4120 0001274  96.7362 263.3784 15.30253811 13430
Source of the keplerian elements: AFSPC